Clinton-Sherman, OK

10:36 PM CDT on April 27, 2017 (GMT -0500)
Clinton-Sherman

Weather History for KCSM - January, 2013

Change the Weather History Date:

Monday, January 21, 2013

  Actual Average Record
Temperature  
Mean Temperature 31 °F -  
Max Temperature 41 °F 48 °F 70 °F (2009)
Min Temperature 21 °F 27 °F 19 °F (2011)
Degree Days  
Heating Degree Days 34    
Moisture  
Dew Point 14 °F    
Average Humidity 53    
Maximum Humidity 68    
Minimum Humidity 33    
Precipitation  
Precipitation 0.00 in - - ()
Sea Level Pressure  
Sea Level Pressure 30.34 in    
Wind  
Wind Speed 13 mph (NE)    
Max Wind Speed 22 mph    
Max Gust Speed 20 mph    
Visibility 10 miles    
Events      
Averages and records for this station are not official NWS values.
T = Trace of Precipitation, MM = Missing Value Source: NWS Daily Summary

Daily Weather History Graph

Daily Weather History Graph

Search for Another Location

Airport or City:

Trip Planner

Search our weather history database for the weather conditions in past years. The results will help you decide how hot, cold, wet, or windy it might be!

Date:

Astronomy

Jan. 21, 2013 Rise Set
Actual Time 7:42 AM CST 5:54 PM CST
Civil Twilight 7:15 AM CST 6:21 PM CST
Nautical Twilight 6:44 AM CST 6:52 PM CST
Astronomical Twilight 6:14 AM CST 7:22 PM CST
Moon 1:35 PM CST (1/21) 3:12 AM CST (1/21)
Length of Visible Light 11h 05m
Length of Day
10h 11m
Waxing Gibbous, 75% of the Moon is Illuminated
Jan 21
Waxing Gibbous
Jan 26
Full
Feb 3
Last Quarter
Feb 10
New
Feb 17
First Quarter

Hourly Weather History & Observations

Time (CST) Temp. Windchill Dew Point Humidity Pressure Visibility Wind Dir Wind Speed Gust Speed Precip Events Conditions
12:53 AM 30.0 °F 16.9 °F 17.1 °F 59% 30.31 in 10.0 mi NNE 21.9 mph - N/A   Clear
1:53 AM 27.0 °F 13.9 °F 15.1 °F 61% 30.32 in 10.0 mi NNE 18.4 mph - N/A   Clear
2:53 AM 26.1 °F 12.7 °F 15.1 °F 63% 30.33 in 10.0 mi NNE 18.4 mph - N/A   Clear
3:53 AM 25.0 °F 12.2 °F 14.0 °F 63% 30.33 in 10.0 mi NNE 16.1 mph - N/A   Clear
4:53 AM 23.0 °F 9.2 °F 12.9 °F 65% 30.33 in 10.0 mi NNE 17.3 mph - N/A   Clear
5:53 AM 21.9 °F 10.4 °F 12.0 °F 66% 30.35 in 10.0 mi North 11.5 mph - N/A   Clear
6:53 AM 21.0 °F 9.9 °F 12.0 °F 68% 30.38 in 10.0 mi North 10.4 mph - N/A   Clear
7:53 AM 21.0 °F 8.6 °F 12.0 °F 68% 30.41 in 10.0 mi North 12.7 mph - N/A   Clear
8:53 AM 23.0 °F 9.6 °F 10.9 °F 60% 30.42 in 10.0 mi North 16.1 mph - N/A   Clear
9:53 AM 26.1 °F 15.0 °F 10.9 °F 53% 30.45 in 10.0 mi NNE 12.7 mph - N/A   Clear
10:53 AM 30.9 °F 21.2 °F 10.9 °F 43% 30.45 in 10.0 mi NNE 12.7 mph - N/A   Clear
11:53 AM 33.1 °F 24.9 °F 10.0 °F 38% 30.43 in 10.0 mi NNE 10.4 mph 19.6 mph N/A   Clear
12:53 PM 36.0 °F 29.0 °F 12.0 °F 37% 30.39 in 10.0 mi NE 9.2 mph - N/A   Clear
1:53 PM 37.9 °F 33.5 °F 14.0 °F 38% 30.34 in 10.0 mi North 5.8 mph - N/A   Clear
2:53 PM 39.0 °F - 14.0 °F 36% 30.32 in 10.0 mi Calm Calm - N/A   Clear
3:53 PM 41.0 °F 39.0 °F 14.0 °F 33% 30.30 in 10.0 mi ESE 3.5 mph - N/A   Clear
4:53 PM 41.0 °F 39.0 °F 15.1 °F 35% 30.30 in 10.0 mi East 3.5 mph - N/A   Clear
5:53 PM 37.9 °F 34.4 °F 15.1 °F 39% 30.29 in 10.0 mi ESE 4.6 mph - N/A   Clear
6:53 PM 33.1 °F 30.0 °F 17.1 °F 52% 30.30 in 10.0 mi South 3.5 mph - N/A   Clear
7:53 PM 32.0 °F 27.5 °F 16.0 °F 52% 30.30 in 10.0 mi SSE 4.6 mph - N/A   Clear
8:53 PM 28.9 °F 22.8 °F 18.0 °F 64% 30.31 in 10.0 mi South 5.8 mph - N/A   Clear
9:53 PM 30.9 °F 24.3 °F 17.1 °F 57% 30.31 in 10.0 mi SSE 6.9 mph - N/A   Clear
10:53 PM 30.0 °F 25.2 °F 17.1 °F 59% 30.31 in 10.0 mi ESE 4.6 mph - N/A   Clear
11:53 PM 28.0 °F 21.7 °F 17.1 °F 63% 30.30 in 10.0 mi SE 5.8 mph - N/A   Clear